Date String (YYYY-MM-DD hh:mm:ss) UTC,Instrument flags,Ambient pressure (hPa),Sample flow (lpm),Bypass flow (lpm),Sample temperature (°C),Ambient temperature (°C),ASC tube jacket temperature (°C),LED temperature (°C),Box temperature (°C),Sample RH (%),Span deviation,Mass concentration (μg/m³),Mass concentration (μg/m³),Mass concentration (μg/m³)
DateTimeUTC,F1_M11,P_M11,Q1_M11,Q2_M11,T1_M11,T2_M11,T3_M11,T4_M11,T5_M11,U1_M11,ZSPAN_M11,X0_M11,X2_M11,X1_M11
2022-11-16 16:00:00,,0835.5,5.00,0.00,22.2,21.0,00.0,31.2,24.0,07.8,0000.0,0006.15,0001.69,0001.19
2022-11-16 16:01:00,,0835.5,4.99,0.00,22.2,21.0,00.0,31.2,24.0,08.0,0000.0,0006.03,0001.69,0001.20
2022-11-16 16:02:00,,0835.5,4.99,0.00,22.2,20.9,00.0,31.2,24.1,07.9,0000.0,0006.07,0001.76,0001.22
2022-11-16 16:03:00,,0835.5,5.00,0.00,22.3,21.4,00.0,31.1,24.2,07.9,0000.0,0006.11,0001.79,0001.22
2022-11-16 16:04:00,,0835.5,5.01,0.00,22.4,22.5,00.0,31.1,24.4,08.2,0000.0,0005.98,0001.79,0001.23
2022-11-16 16:05:00,,0835.5,4.99,0.00,22.5,23.0,00.0,31.2,24.6,07.6,0000.0,0006.10,0001.83,0001.24
2022-11-16 16:06:00,,0835.5,4.99,0.00,22.6,22.7,00.0,31.2,24.6,07.5,0000.0,0006.05,0001.80,0001.23
2022-11-16 16:07:00,,0835.6,5.01,0.00,22.6,22.4,00.0,31.3,24.6,07.5,0000.0,0006.63,0001.80,0001.24
2022-11-16 16:08:00,,0835.6,5.01,0.00,22.6,22.2,00.0,31.3,24.6,07.7,0000.0,0007.42,0001.83,0001.24
2022-11-16 16:09:00,,0835.6,5.01,0.00,22.6,22.1,00.0,31.3,24.6,07.6,0000.0,0006.49,0001.84,0001.23
2022-11-16 16:10:00,,0835.5,5.00,0.00,22.6,22.0,00.0,31.3,24.6,07.5,0000.0,0006.42,0001.82,0001.23
2022-11-16 16:11:00,,0835.6,4.99,0.00,22.6,21.9,00.0,31.4,24.6,07.4,0000.0,0005.63,0001.80,0001.23
2022-11-16 16:12:00,,0835.6,5.00,0.00,22.7,21.8,00.0,31.4,24.6,07.1,0000.0,0004.64,0001.75,0001.23
2022-11-16 16:13:00,,0835.6,5.01,0.00,22.7,21.8,00.0,31.4,24.6,07.1,0000.0,0004.23,0001.71,0001.22
2022-11-16 16:14:00,,0835.6,5.00,0.00,22.7,21.8,00.0,31.4,24.6,06.9,0000.0,0004.08,0001.67,0001.21
2022-11-16 16:15:00,,0835.6,4.99,0.00,22.7,21.7,00.0,31.4,24.6,06.8,0000.0,0003.92,0001.58,0001.20
2022-11-16 16:16:00,,0835.5,5.00,0.00,22.7,21.7,00.0,31.5,24.6,06.6,0000.0,0003.91,0001.55,0001.20
2022-11-16 16:17:00,,0835.6,5.02,0.00,22.7,21.7,00.0,31.5,24.6,06.7,0000.0,0003.70,0001.50,0001.19
2022-11-16 16:18:00,,0835.6,5.00,0.00,22.7,21.6,00.0,31.5,24.6,06.9,0000.0,0003.74,0001.52,0001.20
2022-11-16 16:19:00,,0835.6,4.99,0.00,22.7,21.6,00.0,31.5,24.6,06.8,0000.0,0003.29,0001.51,0001.20
2022-11-16 16:20:00,,0835.5,4.99,0.00,22.7,21.6,00.0,31.5,24.6,06.9,0000.0,0002.24,0001.46,0001.21
2022-11-16 16:21:00,,0835.6,5.00,0.00,22.7,21.6,00.0,31.5,24.6,07.0,0000.0,0002.12,0001.45,0001.22
2022-11-16 16:22:00,,0835.5,5.01,0.00,22.7,21.6,00.0,31.5,24.6,06.9,0000.0,0002.09,0001.43,0001.24
2022-11-16 16:23:00,,0835.6,5.01,0.00,22.7,21.6,00.0,31.5,24.6,07.2,0000.0,0002.24,0001.50,0001.25
2022-11-16 16:24:00,,0835.6,5.00,0.00,22.7,21.5,00.0,31.5,24.6,07.3,0000.0,0002.44,0001.59,0001.28
2022-11-16 16:25:00,,0835.6,4.99,0.00,22.7,21.5,00.0,31.5,24.5,07.5,0000.0,0002.57,0001.64,0001.32
2022-11-16 16:26:00,,0835.6,4.99,0.00,22.7,21.4,00.0,31.5,24.6,07.7,0000.0,0002.74,0001.71,0001.37
2022-11-16 16:27:00,,0835.6,5.00,0.00,22.7,21.4,00.0,31.5,24.6,07.7,0000.0,0002.88,0001.84,0001.46
2022-11-16 16:28:00,,0835.6,5.00,0.00,22.7,21.4,00.0,31.5,24.6,07.5,0000.0,0003.23,0001.95,0001.57
2022-11-16 16:29:00,,0835.6,5.01,0.00,22.7,21.4,00.0,31.5,24.5,07.3,0000.0,0003.88,0002.08,0001.72
2022-11-16 16:30:00,,0835.5,5.01,0.00,22.6,21.4,00.0,31.5,24.5,07.6,0000.0,0004.21,0002.28,0001.88
2022-11-16 16:31:00,,0835.5,5.00,0.00,22.7,21.4,00.0,31.5,24.5,07.8,0000.0,0004.63,0002.45,0002.01
2022-11-16 16:32:00,,0835.6,5.00,0.00,22.6,21.3,00.0,31.5,24.5,07.7,0000.0,0004.92,0002.60,0002.08
2022-11-16 16:33:00,,0835.6,5.00,0.00,22.6,21.3,00.0,31.5,24.5,07.9,0000.0,0005.22,0002.71,0002.15
2022-11-16 16:34:00,,0835.6,5.00,0.00,22.6,21.3,00.0,31.5,24.5,07.9,0000.0,0005.35,0002.74,0002.19
2022-11-16 16:35:00,,0835.6,4.99,0.00,22.6,21.3,00.0,31.5,24.5,07.7,0000.0,0005.24,0002.74,0002.23
2022-11-16 16:36:00,,0835.6,4.99,0.00,22.6,21.3,00.0,31.5,24.5,07.8,0000.0,0005.16,0002.74,0002.25
2022-11-16 16:37:00,,0835.6,5.01,0.00,22.6,21.2,00.0,31.5,24.5,07.8,0000.0,0005.26,0002.74,0002.23
2022-11-16 16:38:00,,0835.6,5.00,0.00,22.6,21.2,00.0,31.5,24.5,07.8,0000.0,0006.10,0002.71,0002.18
2022-11-16 16:39:00,,0835.6,5.01,0.00,22.6,21.2,00.0,31.5,24.4,07.8,0000.0,0006.06,0002.69,0002.15
2022-11-16 16:40:00,,0835.6,5.00,0.00,22.6,21.3,00.0,31.5,24.5,07.9,0000.0,0005.57,0002.62,0002.06
2022-11-16 16:41:00,,0835.6,5.00,0.00,22.6,21.3,00.0,31.5,24.4,08.2,0000.0,0006.68,0002.55,0001.95
2022-11-16 16:42:00,,0835.6,5.00,0.00,22.6,21.3,00.0,31.5,24.4,08.0,0000.0,0006.50,0002.48,0001.86
2022-11-16 16:43:00,,0835.6,4.99,0.00,22.6,21.3,00.0,31.5,24.4,08.5,0000.0,0006.75,0002.47,0001.83
2022-11-16 16:44:00,,0835.6,5.00,0.00,22.6,21.2,00.0,31.5,24.4,08.2,0000.0,0006.80,0002.45,0001.80
2022-11-16 16:45:00,,0835.6,5.01,0.00,22.6,21.2,00.0,31.5,24.4,08.5,0000.0,0006.99,0002.46,0001.79
2022-11-16 16:46:00,,0835.6,5.01,0.00,22.6,21.2,00.0,31.5,24.4,08.7,0000.0,0007.30,0002.50,0001.78
2022-11-16 16:47:00,,0835.6,5.00,0.00,22.6,21.2,00.0,31.5,24.4,07.9,0000.0,0007.34,0002.52,0001.77
2022-11-16 16:48:00,,0835.6,4.99,0.00,22.5,21.2,00.0,31.4,24.3,07.6,0000.0,0007.20,0002.53,0001.80
2022-11-16 16:49:00,,0835.5,4.99,0.00,22.5,21.2,00.0,31.4,24.3,07.6,0000.0,0006.32,0002.52,0001.81
2022-11-16 16:50:00,,0835.6,5.00,0.00,22.5,21.2,00.0,31.4,24.3,08.1,0000.0,0006.40,0002.55,0001.81
2022-11-16 16:51:00,,0835.6,5.01,0.00,22.5,21.2,00.0,31.4,24.4,08.2,0000.0,0006.58,0002.61,0001.83
2022-11-16 16:52:00,,0835.5,5.01,0.00,22.5,21.2,00.0,31.4,24.3,08.3,0000.0,0006.08,0002.57,0001.83
2022-11-16 16:53:00,,0835.6,5.00,0.00,22.5,21.2,00.0,31.4,24.3,08.3,0000.0,0006.43,0002.56,0001.86
2022-11-16 16:54:00,,0835.6,4.98,0.00,22.5,21.2,00.0,31.4,24.3,08.4,0000.0,0006.39,0002.53,0001.90
2022-11-16 16:55:00,,0835.6,5.00,0.00,22.5,21.2,00.0,31.4,24.4,08.6,0000.0,0006.39,0002.56,0001.94
2022-11-16 16:56:00,,0835.5,5.01,0.00,22.5,21.2,00.0,31.4,24.4,08.5,0000.0,0006.21,0002.59,0001.98
2022-11-16 16:57:00,,0835.6,5.00,0.00,22.5,21.1,00.0,31.4,24.3,08.6,0000.0,0005.94,0002.59,0002.02
2022-11-16 16:58:00,,0835.6,5.00,0.00,22.5,21.1,00.0,31.4,24.3,08.4,0000.0,0005.85,0002.59,0002.06
2022-11-16 16:59:00,,0835.5,5.01,0.00,22.5,21.1,00.0,31.4,24.3,08.5,0000.0,0005.79,0002.61,0002.11
